Latest Weather Observations for Scherger

IDQ60801

Issued at 7:05 pm EST Saturday 25 October 2014 (issued every 30 minutes, with the page automatically refreshed every 10 minutes)

About weather observations | Map of weather stations | Latest weather observations for QLD | Other Formats
Station Details ID: 027075 Name: SCHERGER RAAF Lat: -12.62 Lon: 142.09 Height: 39.34 m
Data from the previous 72 hours. | See also: Recent months at Scherger
Date/Time
EST
Temp
°C
App
Temp
°C
Dew
Point
Rel
Hum
%
Delta-T
°C
Wind Press
QNH
hPa
Press
MSL
hPa
Rain
since 9 am
mm
Dir
 
Spd
km/h
Gust
km/h
Spd
kts
Gust
kts
25/07:00pm 27.9 27.1 15.2 46 7.7 E 13 20 7 11 1013.3 1013.0 0.0
25/06:30pm 28.4 27.1 15.7 46 7.8 E 17 30 9 16 1012.8 1012.5 0.0
25/06:00pm 29.2 27.9 15.7 44 8.3 ESE 17 28 9 15 1012.5 1012.2 0.0
25/05:30pm 30.3 28.5 16.0 42 8.9 E 20 33 11 18 1011.9 1011.6 0.0
25/05:00pm 30.9 30.0 14.9 37 9.8 E 13 20 7 11 1011.4 1011.1 0.0
25/04:30pm 31.0 29.7 15.8 40 9.5 E 17 26 9 14 1011.3 1011.0 0.0
25/04:00pm 31.5 30.5 15.5 38 9.9 E 15 26 8 14 1011.3 1011.0 0.0
25/03:30pm 33.0 31.2 15.9 35 10.7 SE 20 30 11 16 1011.1 1010.8 0.0
25/03:00pm 33.1 32.5 15.6 35 10.9 E 13 24 7 13 1011.3 1011.0 0.0
25/02:30pm 32.6 31.0 16.4 37 10.2 E 20 30 11 16 1011.6 1011.3 0.0
25/02:00pm 31.8 29.2 14.9 36 10.4 E 22 35 12 19 1011.9 1011.6 0.0
25/01:30pm 32.8 30.8 14.9 34 11.1 ESE 19 33 10 18 1012.0 1011.7 0.0
25/01:00pm 33.1 31.3 16.0 35 10.7 ESE 20 30 11 16 1012.4 1012.1 0.0
25/12:30pm 32.7 30.6 14.8 34 11.0 ESE 19 35 10 19 1012.8 1012.5 0.0
25/12:00pm 31.9 29.3 15.0 36 10.4 SE 22 28 12 15 1013.3 1013.0 0.0
25/11:30am 31.7 30.7 15.6 37 10.0 E 15 30 8 16 1014.0 1013.7 0.0
25/11:00am 31.0 29.1 15.8 40 9.5 ESE 20 30 11 16 1014.5 1014.2 0.0
25/10:30am 29.5 28.7 17.0 47 7.9 E 17 35 9 19 1015.0 1014.8 0.0
25/10:00am 29.2 28.1 17.7 50 7.3 ESE 20 32 11 17 1015.5 1015.3 0.0
25/09:30am 28.3 28.3 18.1 54 6.5 ENE 15 26 8 14 1015.6 1015.4 0.0
25/09:00am 27.2 26.7 17.7 56 6.0 ESE 17 32 9 17 1015.9 1015.7 0.0
25/08:30am 25.7 25.0 17.4 60 5.2 ESE 17 33 9 18 1015.9 1015.7 0.0
25/08:00am 25.0 25.2 17.7 64 4.6 SE 13 22 7 12 1015.9 1015.7 0.0
25/07:30am 24.0 24.4 17.3 66 4.2 SE 11 17 6 9 1015.7 1015.5 0.0
25/07:00am 22.7 23.5 17.2 71 3.4 SSE 9 15 5 8 1015.3 1015.1 0.0
25/06:30am 21.4 22.7 17.0 76 2.7 SSE 6 11 3 6 1014.9 1014.7 0.0
25/06:00am 21.2 22.2 16.8 76 2.7 SSE 7 11 4 6 1014.6 1014.3 0.0
25/05:30am 21.3 21.9 16.7 75 2.8 SE 9 15 5 8 1014.3 1014.0 0.0
25/05:00am 21.2 22.2 16.8 76 2.7 SE 7 11 4 6 1014.1 1013.8 0.0
25/04:30am 20.6 22.7 16.2 76 2.6 CALM 0 0 0 0 1014.0 1013.7 0.0
25/04:00am 21.1 22.5 16.3 74 2.9 SE 4 7 2 4 1013.9 1013.6 0.0
25/03:30am 21.3 22.2 16.5 74 2.9 SSE 7 9 4 5 1013.8 1013.5 0.0
25/03:00am 21.7 22.1 16.4 72 3.2 SSE 9 11 5 6 1014.0 1013.7 0.0
25/02:30am 22.3 22.8 16.6 70 3.5 SE 9 13 5 7 1014.3 1014.0 0.0
25/02:00am 22.8 23.0 16.8 69 3.7 E 11 20 6 11 1014.7 1014.5 0.0
25/01:30am 23.0 22.5 17.0 69 3.7 E 15 20 8 11 1014.6 1014.3 0.0
25/01:00am 23.2 23.1 17.0 68 3.8 E 13 22 7 12 1014.9 1014.7 0.0
25/12:30am 23.3 23.6 17.1 68 3.8 E 11 17 6 9 1015.4 1015.2 0.0
25/12:00am 23.5 24.2 17.0 67 4.0 ESE 9 19 5 10 1015.5 1015.3 0.0
 
Date/Time
EST
Temp
°C
App
Temp
°C
Dew
Point
Rel
Hum
%
Delta-T
°C
Wind Press
QNH
hPa
Press
MSL
hPa
Rain
since 9 am
mm
Dir
 
Spd
km/h
Gust
km/h
Spd
kts
Gust
kts
24/11:30pm 23.8 24.4 16.8 65 4.3 E 9 17 5 9 1015.5 1015.3 0.0
24/11:00pm 24.1 24.2 16.6 63 4.6 ESE 11 20 6 11 1015.8 1015.6 0.0
24/10:30pm 24.3 24.3 16.3 61 4.9 ESE 11 20 6 11 1015.9 1015.7 0.0
24/10:00pm 24.7 24.3 16.2 59 5.2 ESE 13 20 7 11 1015.7 1015.5 0.0
24/09:30pm 25.1 23.9 15.1 53 6.0 E 15 26 8 14 1015.3 1015.1 0.0
24/09:00pm 25.6 24.5 14.4 50 6.7 ESE 13 20 7 11 1014.9 1014.7 0.0
24/08:30pm 26.0 24.0 13.8 47 7.2 ESE 17 30 9 16 1014.3 1014.0 0.0
24/08:00pm 26.6 24.8 13.3 43 7.8 E 15 28 8 15 1013.8 1013.5 0.0
24/07:30pm 27.1 26.0 13.1 42 8.2 E 11 26 6 14 1013.5 1013.2 0.0
24/07:00pm 27.8 24.9 12.2 38 9.1 E 19 26 10 14 1013.1 1012.8 0.0
24/06:30pm 28.6 25.3 10.8 33 10.1 E 19 35 10 19 1012.5 1012.2 0.0
24/06:00pm 29.5 26.1 10.6 31 10.8 E 19 32 10 17 1012.0 1011.7 0.0
24/05:30pm 31.0 27.4 9.8 27 12.0 E 19 33 10 18 1011.3 1011.0 0.0
24/05:00pm 32.1 28.5 8.4 23 13.2 ENE 17 30 9 16 1010.8 1010.5 0.0
24/04:30pm 33.4 29.9 7.4 20 14.4 ESE 15 24 8 13 1010.5 1010.2 0.0
24/04:00pm 33.5 29.9 6.7 19 14.7 E 15 26 8 14 1010.3 1010.0 0.0
24/03:30pm 33.9 29.4 7.0 19 14.8 E 20 33 11 18 1010.3 1010.0 0.0
24/03:00pm 33.7 30.3 7.6 20 14.5 ESE 15 28 8 15 1010.3 1010.0 0.0
24/02:30pm 34.2 30.7 8.8 21 14.4 ENE 17 30 9 16 1010.6 1010.3 0.0
24/02:00pm 33.7 30.3 7.6 20 14.5 SSE 15 20 8 11 1011.1 1010.8 0.0
24/01:30pm 33.9 31.3 9.2 22 14.1 E 13 30 7 16 1011.6 1011.3 0.0
24/01:00pm 33.2 30.4 9.9 24 13.4 ENE 15 26 8 14 1012.2 1011.9 0.0
24/12:30pm 32.9 29.2 11.4 27 12.6 ESE 22 43 12 23 1013.0 1012.7 0.0
24/12:00pm 32.2 29.2 11.9 29 12.0 SSE 19 26 10 14 1013.5 1013.2 0.0
24/11:30am 32.4 30.2 12.1 29 12.0 ESE 15 26 8 14 1014.0 1013.7 0.0
24/11:00am 31.4 28.3 12.2 30 11.3 ESE 20 28 11 15 1014.5 1014.2 0.0
24/10:30am 30.7 28.0 13.0 33 10.5 ENE 19 28 10 15 1015.0 1014.8 0.0
24/10:00am 30.0 28.1 14.1 37 9.6 ESE 17 28 9 15 1015.6 1015.4 0.0
24/09:30am 28.4 26.7 15.7 46 7.8 E 19 26 10 14 1016.0 1015.8 0.0
24/09:00am 27.3 26.3 16.6 52 6.6 E 17 30 9 16 1016.2 1016.0 0.0
24/08:30am 26.5 25.9 16.7 55 6.1 ESE 15 22 8 12 1016.3 1016.1 0.0
24/08:00am 25.1 25.7 16.8 60 5.1 ESE 9 15 5 8 1016.2 1016.0 0.0
24/07:30am 23.5 24.6 17.0 67 4.0 SE 7 11 4 6 1015.9 1015.7 0.0
24/07:00am 21.6 24.0 17.0 75 2.8 CALM 0 0 0 0 1015.6 1015.4 0.0
24/06:30am 19.2 21.3 16.2 83 1.8 CALM 0 0 0 0 1015.2 1015.0 0.0
24/06:00am 18.8 20.8 15.9 83 1.7 CALM 0 0 0 0 1014.8 1014.6 0.0
24/05:30am 19.0 21.0 16.0 83 1.8 CALM 0 0 0 0 1014.5 1014.2 0.0
24/05:00am 19.1 21.1 16.0 82 1.8 CALM 0 0 0 0 1014.0 1013.7 0.0
24/04:30am 19.3 21.2 15.8 80 2.1 CALM 0 0 0 0 1013.8 1013.5 0.0
24/04:00am 19.6 21.5 15.7 78 2.3 CALM 0 0 0 0 1013.7 1013.4 0.0
24/03:30am 20.6 22.7 16.2 76 2.6 CALM 0 0 0 0 1013.6 1013.3 0.0
24/03:00am 21.0 22.1 16.6 76 2.7 SE 6 7 3 4 1013.5 1013.2 0.0
24/02:30am 20.8 21.7 16.2 75 2.8 SSE 6 9 3 5 1013.7 1013.4 0.0
24/02:00am 21.5 22.8 16.2 72 3.2 SSE 4 7 2 4 1013.9 1013.6 0.0
24/01:30am 22.2 23.3 16.7 71 3.4 SE 6 9 3 5 1014.2 1013.9 0.0
24/01:00am 22.5 23.6 16.5 69 3.7 E 6 9 3 5 1014.5 1014.2 0.0
24/12:30am 22.9 23.9 16.4 67 4.0 E 6 9 3 5 1014.9 1014.7 0.0
24/12:00am 23.2 24.0 16.3 65 4.2 E 7 11 4 6 1015.3 1015.1 0.0
 
Date/Time
EST
Temp
°C
App
Temp
°C
Dew
Point
Rel
Hum
%
Delta-T
°C
Wind Press
QNH
hPa
Press
MSL
hPa
Rain
since 9 am
mm
Dir
 
Spd
km/h
Gust
km/h
Spd
kts
Gust
kts
23/11:30pm 23.4 24.0 15.7 62 4.6 E 7 11 4 6 1015.5 1015.3 0.0
23/11:00pm 23.8 24.2 15.3 59 5.1 ESE 7 11 4 6 1015.5 1015.3 0.0
23/10:30pm 24.3 23.7 14.7 55 5.7 ESE 11 17 6 9 1015.5 1015.3 0.0
23/10:00pm 24.7 23.0 13.6 50 6.5 E 15 24 8 13 1015.4 1015.2 0.0
23/09:30pm 25.0 23.7 12.6 46 7.2 ESE 11 19 6 10 1015.1 1014.9 0.0
23/09:00pm 25.7 23.8 11.8 42 7.9 E 13 20 7 11 1014.8 1014.6 0.0
23/08:30pm 26.1 25.1 12.2 42 8.0 E 9 20 5 11 1014.4 1014.1 0.0
23/08:00pm 26.7 24.9 12.0 40 8.5 E 13 24 7 13 1014.1 1013.8 0.0
23/07:30pm 27.2 25.1 11.2 36 9.1 E 13 22 7 12 1013.6 1013.3 0.0
23/07:00pm 27.9 25.6 11.9 37 9.3 E 15 26 8 14 1013.2 1012.9 0.0
23/06:30pm 28.7 26.5 13.4 39 9.1 E 17 32 9 17 1012.5 1012.2 0.0
23/06:00pm 29.6 28.0 13.8 38 9.5 E 15 28 8 15 1012.0 1011.7 0.0
23/05:30pm 30.5 28.6 14.2 37 9.9 E 17 26 9 14 1011.5 1011.2 0.0
23/05:00pm 31.5 29.6 14.2 35 10.5 E 17 30 9 16 1011.0 1010.7 0.0
23/04:30pm 32.5 30.4 14.6 34 11.0 E 19 35 10 19 1010.7 1010.4 0.0
23/04:00pm 32.6 30.6 13.8 32 11.4 E 17 32 9 17 1010.5 1010.2 0.0
23/03:30pm 32.6 31.0 13.8 32 11.4 E 15 20 8 11 1010.5 1010.2 0.0
23/03:00pm 32.4 31.1 13.6 32 11.4 E 13 24 7 13 1010.5 1010.2 0.0
23/02:30pm 33.6 31.6 12.6 28 12.6 SE 15 28 8 15 1010.6 1010.3 0.0
23/02:00pm 32.9 30.5 12.5 29 12.2 ESE 17 30 9 16 1010.8 1010.5 0.0
23/01:30pm 34.0 32.6 13.5 29 12.5 E 13 24 7 13 1011.2 1010.9 0.0
23/01:00pm 33.3 31.9 13.4 30 12.1 E 13 24 7 13 1011.6 1011.3 0.0
23/12:30pm 32.0 30.1 14.2 34 10.8 SE 17 30 9 16 1012.2 1011.9 0.0
23/12:00pm 31.9 31.8 15.0 36 10.4 E 9 19 5 10 1012.9 1012.6 0.0
23/11:30am 30.1 28.8 15.8 42 8.9 E 17 28 9 15 1013.6 1013.3 0.0
23/11:00am 30.9 30.5 16.1 41 9.2 ESE 13 24 7 13 1014.0 1013.7 0.0
23/10:30am 30.3 30.0 17.4 46 8.2 E 15 24 8 13 1014.4 1014.1 0.0
23/10:00am 28.8 27.9 17.7 51 7.0 E 19 28 10 15 1014.9 1014.7 0.0
23/09:30am 27.4 26.8 17.6 55 6.2 ENE 17 22 9 12 1015.2 1015.0 0.0
23/09:00am 26.8 25.9 17.8 57 5.7 ESE 19 28 10 15 1015.5 1015.3 0.0
23/08:30am 26.1 25.6 17.7 60 5.3 SE 17 26 9 14 1015.6 1015.4 0.0
23/08:00am 25.3 25.6 18.0 64 4.6 ESE 13 22 7 12 1015.5 1015.3 0.0
23/07:30am 24.2 24.9 17.9 68 3.9 ESE 11 17 6 9 1015.3 1015.1 0.0
23/07:00am 23.1 24.2 18.0 73 3.2 SE 9 17 5 9 1015.1 1014.9 0.0
23/06:30am 22.0 23.5 18.0 78 2.5 SSE 7 11 4 6 1014.7 1014.5 0.0
23/06:00am 21.7 23.1 17.9 79 2.4 SE 7 11 4 6 1014.6 1014.3 0.0
23/05:30am 21.9 23.4 18.1 79 2.4 SE 7 9 4 5 1014.2 1013.9 0.0
23/05:00am 22.3 23.9 18.3 78 2.5 SE 7 13 4 7 1014.1 1013.8 0.0
23/04:30am 22.3 23.9 18.3 78 2.5 SE 7 15 4 8 1013.8 1013.5 0.0
23/04:00am 22.0 23.8 18.4 80 2.3 SE 6 9 3 5 1013.7 1013.4 0.0
23/03:30am 21.9 23.6 18.1 79 2.4 SSE 6 9 3 5 1013.6 1013.3 0.0
23/03:00am 22.5 24.0 18.1 76 2.8 SSE 7 11 4 6 1013.5 1013.2 0.0
23/02:30am 22.9 24.2 18.4 76 2.8 ESE 9 13 5 7 1013.7 1013.4 0.0
23/02:00am 23.2 25.5 18.5 75 3.0 ESE 4 11 2 6 1013.9 1013.6 0.0
23/01:30am 23.5 25.2 18.6 74 3.1 ESE 7 11 4 6 1014.3 1014.0 0.0
23/01:00am 23.6 25.5 18.5 73 3.2 E 6 15 3 8 1014.7 1014.5 0.0
23/12:30am 23.8 25.1 18.4 72 3.4 E 9 17 5 9 1015.1 1014.9 0.0
23/12:00am 24.1 24.7 18.5 71 3.5 ESE 13 19 7 10 1015.4 1015.2 0.0
 
Date/Time
EST
Temp
°C
App
Temp
°C
Dew
Point
Rel
Hum
%
Delta-T
°C
Wind Press
QNH
hPa
Press
MSL
hPa
Rain
since 9 am
mm
Dir
 
Spd
km/h
Gust
km/h
Spd
kts
Gust
kts
22/11:30pm 24.2 25.5 18.4 70 3.7 ESE 9 19 5 10 1015.6 1015.4 0.0
22/11:00pm 24.5 26.1 18.2 68 4.0 ESE 7 13 4 7 1015.8 1015.6 0.0
22/10:30pm 24.7 25.8 17.9 66 4.3 ESE 9 17 5 9 1015.9 1015.7 0.0
22/10:00pm 25.1 25.4 17.8 64 4.6 ESE 13 22 7 12 1015.7 1015.5 0.0
22/09:30pm 25.6 25.4 17.5 61 5.1 E 15 20 8 11 1015.2 1015.0 0.0
22/09:00pm 26.1 25.0 17.2 58 5.6 ESE 19 24 10 13 1015.0 1014.8 0.0
22/08:30pm 26.6 25.9 17.4 57 5.8 E 17 26 9 14 1014.6 1014.3 0.0
22/08:00pm 27.2 27.5 17.9 56 5.9 E 13 20 7 11 1014.2 1013.9 0.0
22/07:30pm 27.7 27.2 17.8 54 6.3 E 17 24 9 13 1013.6 1013.3 0.0

Other Formats:

Comma delimited format used in spreadsheet applications
http://www.bom.gov.au/fwo/IDQ60801/IDQ60801.94171.axf

JavaScript Object Notation format (JSON) in row-major order
http://www.bom.gov.au/fwo/IDQ60801/IDQ60801.94171.json